Location: Gloden
(48.4833°N, 15.3167°E)
Time: 08:39:12
(UTC+00:00)

ITUPSAT 1 - Visible Passes

Search period start: 11 May 2021 00:00
Search period end: 21 May 2021 00:00
Orbit: 702 x 712 km, 98.6° (Epoch: 10 May)

Date Brightness Start Highest point End Pass type
(mag) Time Alt. Az. Time Alt. Az. Time Alt. Az.
11 May ? 20:23:12 10° NW 20:24:13 11° NW 20:25:15 10° WNW visible
12 May ? 19:27:15 10° N 19:31:15 27° WNW 19:35:15 10° WSW visible
13 May ? 20:12:48 10° NNW 20:14:52 13° NW 20:16:55 10° W visible
14 May ? 19:17:34 10° N 19:21:49 32° WNW 19:26:02 10° SW visible
15 May ? 20:02:47 10° NNW 20:05:29 15° NW 20:08:10 10° W visible
16 May ? 19:07:56 10° N 19:12:21 39° WNW 19:16:46 10° SW visible
17 May ? 19:52:55 10° NNW 19:56:06 18° WNW 19:59:15 10° W visible
19 May ? 19:43:07 10° NNW 19:46:41 21° WNW 19:50:14 10° WSW visible
